QPF
0.00 0.00 0.01 0.02 0.01 0.01 0.00 0.00 0.00 0.00 0.00 0.00 0.00 0.00 0.00 0.00 0.00 0.00 0.00 0.00 0.00 0.00 0.00 0.00 0.00 0.00 0.00 0.00 0.00 0.00 0.00 0.00 0.00 0.00 0.00 0.00 0.00 0.00 0.00 0.00 0.00 0.00 0.00 0.00 0.00 0.00 0.00 0.00 0.00
0.00 0.00 0.01 0.02 0.01 0.00 0.00 0.00 0.00 0.00 0.00 0.00 0.00 0.00 0.00 0.00 0.00 0.00 0.00 0.00 0.00 0.00 0.00 0.00 0.00 0.00 0.00 0.00 0.00 0.00 0.00 0.00 0.00 0.00 0.00 0.00 0.00 0.00 0.00 0.00 0.00 0.00 0.00 0.00 0.00 0.00 0.00 0.00 0.00
0.00 0.00 0.01 0.01 0.01 0.00 0.00 0.00 0.00 0.00 0.00 0.00 0.00 0.00 0.00 0.00 0.00 0.00 0.00 0.00 0.00 0.00 0.00 0.00 0.00 0.00 0.00 0.00 0.00 0.00 0.00 0.00 0.00 0.00 0.00 0.00 0.00 0.00 0.00 0.00 0.00 0.00 0.00 0.00 0.00 0.00 0.00 0.00 0.00
0.00 0.00 0.00 0.00 0.00 0.00 0.00 0.00 0.00 0.00 0.00 0.00 0.00 0.00 0.00 0.00 0.00 0.00 0.00 0.00 0.00 0.00 0.00 0.00 0.00 0.00 0.00 0.00 0.00 0.00 0.00 0.00 0.00 0.00 0.00 0.00 0.00 0.00 0.00 0.00 0.00 0.00 0.00 0.00 0.00 0.00 0.00 0.00 0.00
0.00 0.00 0.00 0.00 0.00 0.00 0.00 0.00 0.00 0.00 0.00 0.00 0.00 0.00 0.00 0.00 0.00 0.00 0.00 0.00 0.00 0.00 0.00 0.00 0.00 0.00 0.00 0.00 0.00 0.00 0.00 0.00 0.00 0.00 0.00 0.00 0.00 0.00 0.00 0.00 0.00 0.00 0.00 0.00 0.00 0.00 0.00 0.00 0.00
0.00 0.00 0.00 0.00 0.00 0.00 0.00 0.00 0.00 0.00 0.00 0.00 0.00 0.00 0.00 0.00 0.00 0.00 0.00 0.00 0.00 0.00 0.00 0.00 0.00 0.00 0.00 0.00 0.00 0.00 0.00 0.00 0.00 0.00 0.00 0.00 0.00 0.00 0.00 0.00 0.00 0.00 0.00 0.00 0.00 0.00 0.00 0.00 0.00
0.00 0.00 0.00 0.00 0.00 0.00 0.00 0.00 0.00 0.00 0.00 0.00 0.00 0.00 0.00 0.00 0.00 0.00 0.00 0.00 0.00 0.00 0.00 0.00 0.00 0.00 0.00 0.00 0.00 0.00 0.00 0.00 0.00 0.00 0.00 0.00 0.00 0.00 0.00 0.00 0.00 0.00 0.00 0.00 0.00 0.00 0.00 0.00 0.00
0.00 0.00 0.00 0.00 0.00 0.00 0.00 0.00 0.00 0.00 0.00 0.00 0.00 0.00 0.00 0.00 0.00 0.00 0.00 0.00 0.00 0.00 0.00 0.00 0.00 0.00 0.00 0.01 0.01 0.01 0.01 0.01 0.01 0.01 0.01 0.00 0.00 0.00 0.00 0.00 0.00 0.00 0.00 0.01 0.00 0.00 0.00 0.00 0.00
0.00 0.00 0.00 0.00 0.00 0.00 0.00 0.00 0.00 0.00 0.00 0.00 0.00 0.00 0.00 0.00 0.00 0.00 0.00 0.00 0.00 0.00 0.01 0.01 0.01 0.01 0.01 0.01 0.02 0.02 0.02 0.02 0.02 0.02 0.01 0.01 0.00 0.00 0.00 0.00 0.01 0.02 0.04 0.05 0.06 0.06 0.05 0.03 0.02
0.00 0.00 0.00 0.00 0.00 0.00 0.00 0.00 0.00 0.00 0.00 0.00 0.00 0.00 0.00 0.00 0.00 0.00 0.00 0.00 0.00 0.00 0.01 0.01 0.01 0.01 0.01 0.02 0.02 0.02 0.03 0.03 0.02 0.02 0.01 0.01 0.01 0.01 0.01 0.02 0.06 0.11 0.16 0.18 0.19 0.20 0.16 0.13 0.07
0.00 0.00 0.00 0.00 0.00 0.00 0.00 0.00 0.00 0.00 0.00 0.00 0.00 0.00 0.00 0.00 0.00 0.00 0.00 0.00 0.00 0.01 0.03 0.03 0.02 0.03 0.03 0.02 0.02 0.03 0.04 0.03 0.03 0.03 0.03 0.03 0.03 0.03 0.03 0.04 0.06 0.12 0.18 0.14 0.15 0.19 0.12 0.12 0.10
0.00 0.00 0.00 0.00 0.00 0.00 0.00 0.00 0.00 0.00 0.00 0.00 0.00 0.00 0.00 0.00 0.00 0.00 0.00 0.00 0.01 0.04 0.08 0.09 0.08 0.07 0.05 0.04 0.04 0.06 0.06 0.06 0.05 0.06 0.05 0.06 0.07 0.07 0.07 0.09 0.09 0.09 0.10 0.13 0.13 0.12 0.13 0.11 0.11
0.00 0.00 0.00 0.00 0.00 0.00 0.00 0.00 0.00 0.00 0.00 0.00 0.00 0.00 0.00 0.00 0.00 0.00 0.00 0.01 0.04 0.08 0.14 0.19 0.19 0.16 0.14 0.11 0.11 0.09 0.10 0.09 0.09 0.10 0.09 0.10 0.12 0.11 0.14 0.14 0.10 0.08 0.10 0.12 0.12 0.11 0.12 0.12 0.12
0.00 0.00 0.00 0.00 0.00 0.00 0.00 0.00 0.00 0.00 0.00 0.00 0.00 0.00 0.00 0.00 0.00 0.01 0.01 0.03 0.07 0.12 0.20 0.26 0.27 0.28 0.31 0.30 0.29 0.26 0.26 0.26 0.25 0.24 0.22 0.20 0.22 0.23 0.21 0.17 0.12 0.09 0.08 0.07 0.07 0.07 0.06 0.06 0.07
0.00 0.00 0.00 0.00 0.00 0.00 0.00 0.00 0.00 0.00 0.00 0.00 0.00 0.00 0.01 0.01 0.01 0.01 0.03 0.05 0.09 0.16 0.24 0.32 0.36 0.42 0.48 0.49 0.50 0.50 0.47 0.46 0.46 0.44 0.44 0.39 0.38 0.37 0.29 0.20 0.11 0.07 0.05 0.04 0.04 0.05 0.04 0.03 0.02
0.00 0.00 0.00 0.00 0.00 0.00 0.00 0.00 0.00 0.00 0.00 0.00 0.00 0.01 0.01 0.01 0.02 0.03 0.04 0.07 0.13 0.20 0.24 0.29 0.37 0.50 0.60 0.59 0.58 0.59 0.57 0.54 0.57 0.58 0.61 0.60 0.54 0.45 0.32 0.18 0.10 0.05 0.03 0.03 0.03 0.02 0.01 0.01 0.01
0.00 0.00 0.00 0.00 0.00 0.00 0.00 0.00 0.00 0.00 0.00 0.00 0.00 0.01 0.01 0.02 0.04 0.06 0.07 0.10 0.14 0.18 0.24 0.32 0.38 0.51 0.67 0.63 0.57 0.61 0.66 0.68 0.69 0.79 0.83 0.73 0.60 0.44 0.31 0.20 0.10 0.05 0.04 0.03 0.02 0.01 0.01 0.00 0.00
0.00 0.00 0.00 0.00 0.00 0.00 0.00 0.00 0.00 0.00 0.00 0.00 0.00 0.01 0.03 0.04 0.06 0.09 0.09 0.12 0.15 0.18 0.23 0.27 0.28 0.32 0.41 0.48 0.52 0.66 0.82 0.86 0.81 0.76 0.69 0.54 0.43 0.31 0.21 0.14 0.08 0.04 0.03 0.01 0.00 0.00 0.00 0.00 0.00
0.00 0.00 0.00 0.00 0.00 0.00 0.00 0.00 0.00 0.01 0.01 0.01 0.01 0.03 0.05 0.07 0.09 0.09 0.10 0.12 0.15 0.17 0.19 0.21 0.22 0.23 0.30 0.39 0.49 0.62 0.66 0.64 0.56 0.43 0.33 0.27 0.20 0.15 0.12 0.06 0.03 0.02 0.01 0.00 0.00 0.00 0.00 0.00 0.00
0.00 0.00 0.00 0.00 0.00 0.00 0.00 0.00 0.01 0.01 0.01 0.01 0.02 0.04 0.06 0.07 0.07 0.08 0.11 0.12 0.13 0.14 0.15 0.16 0.21 0.20 0.25 0.28 0.30 0.33 0.36 0.33 0.29 0.26 0.20 0.17 0.15 0.12 0.07 0.04 0.02 0.01 0.01 0.00 0.00 0.00 0.00 0.00 0.00
0.00 0.00 0.00 0.00 0.00 0.00 0.00 0.00 0.01 0.01 0.01 0.01 0.02 0.03 0.04 0.05 0.07 0.08 0.09 0.09 0.09 0.07 0.07 0.06 0.07 0.07 0.09 0.11 0.11 0.14 0.18 0.19 0.18 0.18 0.17 0.16 0.13 0.11 0.07 0.04 0.03 0.02 0.01 0.01 0.01 0.00 0.00 0.00 0.00
0.00 0.00 0.00 0.00 0.00 0.00 0.00 0.00 0.01 0.01 0.01 0.01 0.02 0.03 0.03 0.04 0.06 0.07 0.06 0.05 0.05 0.04 0.04 0.04 0.04 0.04 0.04 0.05 0.07 0.09 0.10 0.11 0.11 0.11 0.13 0.17 0.16 0.13 0.10 0.08 0.05 0.03 0.02 0.01 0.01 0.01 0.00 0.00 0.00
0.00 0.00 0.00 0.00 0.00 0.00 0.00 0.00 0.01 0.01 0.01 0.02 0.03 0.04 0.04 0.04 0.05 0.05 0.04 0.03 0.03 0.02 0.02 0.02 0.02 0.03 0.04 0.05 0.08 0.10 0.10 0.11 0.11 0.11 0.11 0.13 0.15 0.14 0.11 0.09 0.07 0.06 0.04 0.02 0.02 0.01 0.00 0.00 0.00
0.00 0.00 0.00 0.00 0.00 0.00 0.00 0.00 0.01 0.01 0.02 0.02 0.02 0.03 0.03 0.02 0.02 0.02 0.03 0.03 0.02 0.02 0.02 0.02 0.02 0.03 0.04 0.06 0.07 0.07 0.07 0.07 0.08 0.09 0.11 0.12 0.14 0.14 0.12 0.10 0.09 0.09 0.07 0.07 0.05 0.03 0.01 0.01 0.00
0.01 0.00 0.00 0.00 0.00 0.00 0.00 0.01 0.01 0.01 0.01 0.01 0.02 0.02 0.02 0.01 0.01 0.01 0.01 0.01 0.01 0.01 0.01 0.01 0.01 0.01 0.01 0.02 0.02 0.02 0.03 0.04 0.05 0.05 0.06 0.07 0.10 0.11 0.12 0.12 0.12 0.11 0.11 0.10 0.10 0.07 0.04 0.03 0.02
0.01 0.01 0.01 0.01 0.01 0.01 0.01 0.02 0.02 0.02 0.03 0.02 0.01 0.01 0.01 0.01 0.01 0.01 0.01 0.01 0.01 0.01 0.01 0.01 0.01 0.00 0.00 0.00 0.00 0.00 0.01 0.01 0.02 0.03 0.03 0.04 0.05 0.06 0.07 0.08 0.08 0.09 0.11 0.12 0.11 0.11 0.10 0.08 0.05
0.02 0.02 0.02 0.03 0.03 0.02 0.02 0.03 0.01 0.02 0.03 0.02 0.02 0.01 0.01 0.00 0.01 0.00 0.00 0.00 0.00 0.00 0.01 0.01 0.01 0.00 0.00 0.00 0.00 0.00 0.00 0.00 0.00 0.00 0.01 0.01 0.02 0.02 0.04 0.05 0.05 0.06 0.08 0.09 0.10 0.10 0.10 0.10 0.09
0.01 0.02 0.02 0.02 0.02 0.02 0.02 0.04 0.05 0.03 0.03 0.03 0.02 0.02 0.01 0.01 0.01 0.00 0.00 0.00 0.00 0.00 0.00 0.00 0.00 0.00 0.00 0.00 0.00 0.00 0.00 0.00 0.00 0.00 0.00 0.00 0.00 0.01 0.02 0.02 0.03 0.05 0.07 0.07 0.07 0.06 0.06 0.07 0.07
0.01 0.01 0.01 0.02 0.03 0.03 0.03 0.04 0.06 0.03 0.03 0.02 0.02 0.01 0.01 0.01 0.00 0.00 0.00 0.00 0.00 0.00 0.00 0.00 0.00 0.00 0.00 0.00 0.00 0.00 0.00 0.00 0.00 0.00 0.00 0.00 0.00 0.00 0.00 0.01 0.01 0.02 0.04 0.06 0.07 0.06 0.06 0.05 0.05
0.01 0.01 0.01 0.02 0.02 0.02 0.01 0.02 0.02 0.02 0.02 0.01 0.01 0.01 0.01 0.00 0.00 0.00 0.00 0.00 0.00 0.00 0.00 0.00 0.00 0.00 0.00 0.00 0.00 0.00 0.00 0.00 0.00 0.00 0.00 0.00 0.00 0.00 0.00 0.00 0.00 0.00 0.01 0.02 0.03 0.05 0.07 0.06 0.05
MSLP
1010.97 1012.10 1013.14 1013.91 1014.28 1014.20 1013.70 1012.89 1011.94 1011.02 1010.30 1009.84 1009.67 1009.72 1009.88 1010.04 1010.08 1009.96 1009.69 1009.35 1009.04 1008.86 1008.89 1009.15 1009.61 1010.20 1010.80 1011.34 1011.75 1012.01 1012.15 1012.24 1012.33 1012.49 1012.74 1013.07 1013.44 1013.80 1014.08 1014.28 1014.37 1014.39 1014.39 1014.39 1014.44 1014.55 1014.69 1014.85 1014.99
1011.22 1012.42 1013.45 1014.12 1014.32 1014.01 1013.26 1012.21 1011.04 1009.96 1009.12 1008.60 1008.42 1008.49 1008.71 1008.93 1009.07 1009.06 1008.92 1008.72 1008.55 1008.51 1008.65 1009.00 1009.52 1010.13 1010.75 1011.28 1011.70 1011.98 1012.16 1012.30 1012.46 1012.68 1012.98 1013.32 1013.68 1014.00 1014.23 1014.37 1014.43 1014.43 1014.42 1014.44 1014.52 1014.64 1014.79 1014.95 1015.07
1011.50 1012.73 1013.70 1014.24 1014.26 1013.75 1012.80 1011.57 1010.26 1009.09 1008.21 1007.69 1007.52 1007.64 1007.90 1008.18 1008.38 1008.45 1008.41 1008.31 1008.25 1008.31 1008.55 1008.96 1009.52 1010.15 1010.76 1011.29 1011.70 1012.00 1012.21 1012.39 1012.60 1012.85 1013.16 1013.50 1013.83 1014.10 1014.29 1014.38 1014.41 1014.40 1014.40 1014.45 1014.55 1014.71 1014.88 1015.04 1015.16
1011.82 1013.01 1013.88 1014.28 1014.13 1013.45 1012.36 1011.03 1009.67 1008.50 1007.65 1007.17 1007.06 1007.21 1007.51 1007.82 1008.05 1008.16 1008.17 1008.14 1008.16 1008.30 1008.60 1009.06 1009.64 1010.27 1010.87 1011.39 1011.79 1012.08 1012.31 1012.51 1012.74 1013.00 1013.31 1013.62 1013.91 1014.13 1014.27 1014.33 1014.33 1014.33 1014.35 1014.44 1014.58 1014.77 1014.97 1015.15 1015.28
1012.14 1013.24 1013.97 1014.21 1013.91 1013.11 1011.94 1010.59 1009.27 1008.16 1007.40 1007.01 1006.96 1007.16 1007.47 1007.79 1008.02 1008.14 1008.17 1008.18 1008.25 1008.44 1008.79 1009.28 1009.88 1010.50 1011.09 1011.58 1011.96 1012.24 1012.46 1012.66 1012.88 1013.14 1013.43 1013.71 1013.95 1014.13 1014.22 1014.25 1014.25 1014.25 1014.31 1014.43 1014.61 1014.84 1015.06 1015.26 1015.39
1012.39 1013.35 1013.92 1014.00 1013.56 1012.68 1011.49 1010.19 1008.96 1007.98 1007.34 1007.06 1007.09 1007.33 1007.65 1007.95 1008.17 1008.28 1008.32 1008.35 1008.46 1008.70 1009.09 1009.61 1010.21 1010.82 1011.38 1011.84 1012.19 1012.44 1012.64 1012.83 1013.04 1013.28 1013.53 1013.78 1013.98 1014.12 1014.19 1014.19 1014.18 1014.20 1014.27 1014.41 1014.62 1014.87 1015.11 1015.32 1015.46
1012.50 1013.29 1013.67 1013.58 1013.04 1012.11 1010.95 1009.74 1008.65 1007.82 1007.32 1007.16 1007.26 1007.53 1007.86 1008.14 1008.34 1008.45 1008.50 1008.58 1008.73 1009.02 1009.45 1009.99 1010.59 1011.19 1011.71 1012.13 1012.43 1012.66 1012.83 1012.99 1013.18 1013.40 1013.63 1013.85 1014.02 1014.13 1014.17 1014.16 1014.14 1014.15 1014.23 1014.37 1014.58 1014.83 1015.08 1015.28 1015.42
1012.42 1013.02 1013.21 1012.97 1012.33 1011.39 1010.29 1009.19 1008.25 1007.58 1007.23 1007.16 1007.33 1007.63 1007.95 1008.24 1008.43 1008.56 1008.66 1008.79 1009.01 1009.36 1009.83 1010.39 1010.99 1011.55 1012.03 1012.39 1012.65 1012.82 1012.95 1013.09 1013.26 1013.46 1013.68 1013.89 1014.05 1014.14 1014.17 1014.14 1014.11 1014.10 1014.14 1014.27 1014.45 1014.68 1014.90 1015.10 1015.23
1012.16 1012.55 1012.56 1012.19 1011.49 1010.56 1009.54 1008.57 1007.78 1007.25 1007.02 1007.04 1007.25 1007.57 1007.90 1008.19 1008.42 1008.59 1008.76 1008.98 1009.29 1009.70 1010.22 1010.79 1011.36 1011.87 1012.28 1012.58 1012.76 1012.88 1012.97 1013.07 1013.22 1013.42 1013.64 1013.85 1014.01 1014.11 1014.13 1014.09 1014.03 1013.99 1013.99 1014.06 1014.20 1014.38 1014.57 1014.75 1014.88
1011.77 1011.97 1011.82 1011.35 1010.62 1009.73 1008.80 1007.97 1007.31 1006.91 1006.76 1006.84 1007.08 1007.40 1007.74 1008.06 1008.34 1008.59 1008.86 1009.17 1009.57 1010.06 1010.60 1011.17 1011.69 1012.13 1012.45 1012.64 1012.74 1012.78 1012.81 1012.89 1013.02 1013.22 1013.45 1013.67 1013.86 1013.97 1014.00 1013.96 1013.88 1013.80 1013.76 1013.77 1013.84 1013.96 1014.12 1014.27 1014.39
1011.33 1011.38 1011.12 1010.59 1009.87 1009.05 1008.24 1007.53 1007.00 1006.70 1006.61 1006.71 1006.95 1007.27 1007.61 1007.96 1008.30 1008.64 1009.00 1009.43 1009.91 1010.44 1010.99 1011.52 1011.96 1012.30 1012.49 1012.57 1012.56 1012.51 1012.47 1012.51 1012.62 1012.82 1013.07 1013.33 1013.56 1013.71 1013.77 1013.74 1013.65 1013.54 1013.44 1013.39 1013.40 1013.47 1013.58 1013.71 1013.83
1010.96 1010.90 1010.58 1010.06 1009.40 1008.69 1008.01 1007.43 1007.01 1006.78 1006.72 1006.82 1007.03 1007.32 1007.66 1008.02 1008.41 1008.82 1009.28 1009.78 1010.31 1010.86 1011.38 1011.84 1012.18 1012.37 1012.43 1012.37 1012.23 1012.08 1011.97 1011.96 1012.05 1012.25 1012.52 1012.82 1013.09 1013.29 1013.40 1013.41 1013.33 1013.21 1013.09 1013.00 1012.96 1012.98 1013.06 1013.17 1013.30
1010.77 1010.65 1010.33 1009.86 1009.31 1008.74 1008.22 1007.78 1007.46 1007.28 1007.23 1007.29 1007.45 1007.69 1007.99 1008.34 1008.75 1009.21 1009.71 1010.25 1010.79 1011.32 1011.77 1012.12 1012.33 1012.38 1012.28 1012.08 1011.82 1011.57 1011.38 1011.30 1011.37 1011.56 1011.84 1012.18 1012.50 1012.76 1012.93 1013.00 1012.97 1012.87 1012.75 1012.64 1012.58 1012.58 1012.63 1012.74 1012.87
1010.80 1010.67 1010.40 1010.04 1009.64 1009.25 1008.90 1008.61 1008.39 1008.24 1008.18 1008.18 1008.27 1008.42 1008.66 1008.96 1009.35 1009.80 1010.30 1010.82 1011.32 1011.78 1012.13 1012.36 1012.42 1012.33 1012.10 1011.77 1011.40 1011.05 1010.79 1010.66 1010.68 1010.85 1011.13 1011.49 1011.85 1012.18 1012.42 1012.56 1012.60 1012.56 1012.47 1012.38 1012.32 1012.31 1012.36 1012.46 1012.60
1011.03 1010.93 1010.75 1010.54 1010.32 1010.13 1009.97 1009.82 1009.69 1009.58 1009.48 1009.42 1009.40 1009.45 1009.59 1009.82 1010.14 1010.53 1010.98 1011.43 1011.85 1012.20 1012.44 1012.53 1012.47 1012.26 1011.92 1011.51 1011.06 1010.65 1010.33 1010.14 1010.11 1010.24 1010.50 1010.85 1011.24 1011.61 1011.93 1012.15 1012.27 1012.31 1012.28 1012.23 1012.20 1012.20 1012.25 1012.36 1012.49
1011.39 1011.34 1011.28 1011.23 1011.22 1011.23 1011.25 1011.25 1011.20 1011.11 1010.97 1010.83 1010.71 1010.64 1010.67 1010.79 1011.01 1011.32 1011.66 1012.02 1012.33 1012.56 1012.67 1012.66 1012.50 1012.20 1011.81 1011.36 1010.88 1010.44 1010.08 1009.85 1009.76 1009.83 1010.04 1010.35 1010.73 1011.13 1011.49 1011.79 1011.99 1012.11 1012.16 1012.18 1012.18 1012.21 1012.27 1012.38 1012.51
1011.75 1011.77 1011.84 1011.96 1012.15 1012.36 1012.55 1012.68 1012.70 1012.62 1012.44 1012.22 1011.99 1011.82 1011.72 1011.73 1011.85 1012.04 1012.28 1012.51 1012.70 1012.82 1012.83 1012.72 1012.50 1012.18 1011.79 1011.35 1010.89 1010.46 1010.09 1009.83 1009.68 1009.68 1009.80 1010.05 1010.39 1010.77 1011.15 1011.49 1011.76 1011.96 1012.09 1012.16 1012.21 1012.26 1012.35 1012.46 1012.59
1012.00 1012.10 1012.30 1012.60 1012.98 1013.37 1013.71 1013.94 1014.02 1013.93 1013.71 1013.41 1013.09 1012.81 1012.62 1012.53 1012.55 1012.64 1012.77 1012.89 1012.97 1012.98 1012.90 1012.74 1012.51 1012.20 1011.85 1011.47 1011.08 1010.70 1010.35 1010.06 1009.86 1009.77 1009.81 1009.96 1010.21 1010.53 1010.89 1011.25 1011.56 1011.81 1011.99 1012.12 1012.21 1012.30 1012.39 1012.52 1012.66
1012.06 1012.26 1012.59 1013.05 1013.60 1014.15 1014.61 1014.91 1015.02 1014.92 1014.65 1014.29 1013.89 1013.54 1013.27 1013.12 1013.06 1013.08 1013.12 1013.15 1013.14 1013.06 1012.93 1012.74 1012.51 1012.25 1011.98 1011.69 1011.39 1011.08 1010.77 1010.49 1010.24 1010.07 1010.00 1010.03 1010.18 1010.41 1010.71 1011.04 1011.35 1011.63 1011.84 1012.00 1012.13 1012.23 1012.35 1012.48 1012.63
1011.93 1012.22 1012.70 1013.32 1014.02 1014.68 1015.23 1015.58 1015.69 1015.55 1015.24 1014.82 1014.37 1013.97 1013.67 1013.48 1013.39 1013.36 1013.35 1013.32 1013.24 1013.11 1012.93 1012.72 1012.51 1012.31 1012.11 1011.93 1011.73 1011.51 1011.27 1011.00 1010.73 1010.48 1010.31 1010.22 1010.24 1010.37 1010.58 1010.85 1011.13 1011.39 1011.61 1011.78 1011.92 1012.04 1012.17 1012.32 1012.49
1011.66 1012.07 1012.69 1013.46 1014.28 1015.04 1015.64 1015.99 1016.08 1015.89 1015.52 1015.05 1014.57 1014.15 1013.85 1013.66 1013.58 1013.55 1013.52 1013.45 1013.32 1013.14 1012.92 1012.70 1012.50 1012.34 1012.22 1012.12 1012.03 1011.90 1011.72 1011.48 1011.20 1010.91 1010.65 1010.46 1010.36 1010.38 1010.49 1010.68 1010.90 1011.12 1011.31 1011.47 1011.60 1011.72 1011.86 1012.02 1012.22
1011.37 1011.92 1012.68 1013.59 1014.51 1015.34 1015.95 1016.28 1016.30 1016.05 1015.61 1015.09 1014.59 1014.17 1013.89 1013.73 1013.68 1013.68 1013.65 1013.57 1013.42 1013.19 1012.93 1012.67 1012.46 1012.31 1012.24 1012.21 1012.19 1012.14 1012.02 1011.83 1011.57 1011.26 1010.95 1010.68 1010.50 1010.42 1010.43 1010.53 1010.68 1010.84 1010.99 1011.12 1011.23 1011.33 1011.46 1011.63 1011.85
1011.19 1011.88 1012.79 1013.81 1014.81 1015.67 1016.26 1016.54 1016.48 1016.15 1015.64 1015.06 1014.53 1014.13 1013.87 1013.77 1013.76 1013.79 1013.79 1013.71 1013.52 1013.26 1012.94 1012.64 1012.39 1012.22 1012.15 1012.15 1012.18 1012.19 1012.14 1012.00 1011.78 1011.48 1011.16 1010.86 1010.62 1010.47 1010.42 1010.44 1010.52 1010.61 1010.71 1010.78 1010.85 1010.92 1011.03 1011.18 1011.41
1011.22 1012.05 1013.08 1014.20 1015.25 1016.11 1016.66 1016.85 1016.70 1016.27 1015.68 1015.05 1014.49 1014.09 1013.86 1013.80 1013.84 1013.91 1013.92 1013.84 1013.63 1013.32 1012.95 1012.58 1012.27 1012.06 1011.97 1011.96 1012.01 1012.06 1012.07 1011.99 1011.81 1011.56 1011.27 1010.98 1010.72 1010.54 1010.44 1010.41 1010.43 1010.46 1010.50 1010.52 1010.53 1010.56 1010.62 1010.75 1010.95
1011.53 1012.47 1013.59 1014.76 1015.83 1016.65 1017.13 1017.23 1016.97 1016.44 1015.77 1015.08 1014.50 1014.09 1013.88 1013.84 1013.91 1014.00 1014.03 1013.94 1013.70 1013.35 1012.92 1012.48 1012.11 1011.84 1011.69 1011.66 1011.71 1011.78 1011.82 1011.79 1011.68 1011.49 1011.25 1011.00 1010.77 1010.60 1010.48 1010.42 1010.40 1010.40 1010.38 1010.35 1010.31 1010.27 1010.28 1010.35 1010.52
1012.09 1013.10 1014.27 1015.45 1016.48 1017.24 1017.63 1017.62 1017.27 1016.65 1015.90 1015.17 1014.55 1014.13 1013.92 1013.89 1013.97 1014.06 1014.08 1013.97 1013.71 1013.32 1012.84 1012.35 1011.91 1011.57 1011.37 1011.30 1011.32 1011.38 1011.44 1011.45 1011.40 1011.27 1011.10 1010.91 1010.73 1010.59 1010.49 1010.44 1010.41 1010.38 1010.33 1010.25 1010.16 1010.07 1010.01 1010.02 1010.11
1012.84 1013.88 1015.04 1016.17 1017.13 1017.79 1018.07 1017.97 1017.53 1016.84 1016.05 1015.28 1014.64 1014.20 1013.98 1013.93 1013.99 1014.06 1014.06 1013.93 1013.64 1013.22 1012.70 1012.17 1011.68 1011.29 1011.03 1010.90 1010.88 1010.92 1010.97 1010.99 1010.97 1010.90 1010.79 1010.66 1010.55 1010.46 1010.40 1010.38 1010.36 1010.33 1010.27 1010.17 1010.05 1009.91 1009.79 1009.73 1009.75
1013.69 1014.69 1015.77 1016.81 1017.65 1018.19 1018.38 1018.19 1017.69 1016.97 1016.15 1015.38 1014.73 1014.28 1014.03 1013.95 1013.97 1014.00 1013.96 1013.79 1013.48 1013.04 1012.51 1011.95 1011.43 1011.00 1010.69 1010.50 1010.42 1010.41 1010.42 1010.43 1010.42 1010.37 1010.30 1010.22 1010.17 1010.14 1010.14 1010.16 1010.18 1010.17 1010.13 1010.04 1009.90 1009.74 1009.58 1009.47 1009.42
1014.51 1015.43 1016.39 1017.28 1017.97 1018.39 1018.47 1018.23 1017.70 1016.99 1016.20 1015.45 1014.82 1014.37 1014.09 1013.97 1013.92 1013.89 1013.80 1013.59 1013.25 1012.80 1012.26 1011.70 1011.17 1010.71 1010.36 1010.11 1009.96 1009.87 1009.82 1009.77 1009.72 1009.66 1009.60 1009.56 1009.54 1009.57 1009.62 1009.70 1009.78 1009.82 1009.82 1009.76 1009.65 1009.50 1009.34 1009.20 1009.11
1015.24 1016.02 1016.82 1017.54 1018.07 1018.35 1018.35 1018.08 1017.57 1016.90 1016.18 1015.50 1014.91 1014.47 1014.17 1014.00 1013.88 1013.77 1013.61 1013.35 1012.99 1012.52 1011.99 1011.44 1010.91 1010.43 1010.04 1009.72 1009.49 1009.30 1009.15 1009.02 1008.90 1008.79 1008.71 1008.67 1008.68 1008.75 1008.86 1009.00 1009.13 1009.25 1009.31 1009.31 1009.25 1009.14 1009.01 1008.88 1008.79
Thickness
5829 5825 5821 5810 5794 5784 5787 5806 5820 5827 5832 5841 5844 5840 5831 5823 5814 5814 5838 5847 5844 5837 5831 5826 5820 5815 5810 5806 5802 5798 5795 5792 5789 5787 5785 5782 5780 5778 5776 5774 5772 5771 5769 5768 5766 5764 5763 5761 5760
5828 5823 5815 5802 5788 5779 5793 5817 5823 5829 5839 5847 5846 5842 5834 5830 5834 5834 5838 5842 5841 5835 5829 5824 5819 5814 5809 5804 5800 5796 5793 5790 5787 5785 5782 5780 5778 5776 5775 5773 5771 5769 5768 5766 5764 5763 5761 5759 5758
5827 5823 5806 5794 5788 5787 5801 5824 5831 5840 5847 5846 5840 5840 5836 5832 5836 5836 5841 5841 5837 5831 5826 5822 5817 5812 5807 5802 5798 5794 5791 5787 5785 5782 5780 5778 5776 5774 5772 5771 5770 5768 5767 5765 5763 5762 5760 5758 5756
5823 5811 5802 5789 5791 5806 5818 5832 5839 5839 5844 5846 5839 5831 5838 5846 5844 5843 5843 5840 5834 5828 5824 5820 5815 5809 5804 5800 5795 5792 5788 5785 5782 5780 5778 5776 5773 5772 5770 5768 5767 5766 5765 5763 5762 5760 5759 5757 5755
5818 5802 5789 5780 5791 5812 5830 5840 5843 5837 5838 5841 5838 5828 5830 5843 5848 5846 5842 5838 5831 5826 5822 5817 5812 5807 5802 5797 5793 5790 5786 5783 5780 5777 5775 5773 5771 5769 5767 5765 5764 5762 5761 5761 5759 5758 5757 5755 5754
5803 5794 5777 5775 5792 5815 5830 5841 5841 5838 5838 5841 5837 5828 5829 5840 5841 5841 5840 5835 5830 5824 5819 5814 5810 5804 5800 5795 5791 5788 5784 5780 5777 5774 5771 5769 5767 5766 5764 5762 5761 5760 5758 5757 5757 5756 5754 5753 5752
5798 5785 5780 5785 5791 5805 5828 5841 5837 5834 5834 5839 5842 5827 5829 5834 5838 5838 5836 5832 5827 5822 5816 5811 5806 5801 5796 5792 5788 5784 5781 5778 5774 5772 5769 5766 5764 5762 5760 5759 5758 5757 5756 5754 5754 5753 5752 5751 5750
5807 5788 5785 5783 5789 5801 5827 5836 5840 5837 5836 5848 5846 5828 5826 5835 5837 5833 5828 5824 5820 5816 5812 5807 5803 5798 5793 5789 5785 5781 5777 5774 5771 5768 5766 5763 5761 5759 5758 5756 5755 5754 5753 5752 5751 5750 5749 5749 5748
5809 5779 5772 5784 5791 5804 5824 5827 5836 5846 5841 5843 5846 5842 5844 5843 5834 5825 5818 5814 5811 5809 5806 5803 5799 5794 5790 5786 5781 5777 5774 5770 5767 5765 5763 5761 5758 5756 5754 5753 5752 5751 5751 5750 5749 5748 5748 5747 5746
5794 5771 5782 5799 5807 5811 5820 5824 5829 5832 5830 5833 5837 5841 5843 5837 5827 5818 5813 5808 5805 5802 5800 5797 5793 5789 5784 5780 5777 5774 5771 5767 5764 5761 5758 5756 5754 5752 5750 5748 5748 5748 5748 5748 5748 5747 5746 5745 5744
5793 5784 5797 5807 5815 5816 5817 5822 5829 5822 5817 5828 5831 5833 5831 5827 5820 5815 5810 5806 5802 5798 5793 5790 5787 5782 5778 5774 5772 5769 5765 5762 5758 5755 5753 5751 5749 5748 5746 5745 5744 5744 5745 5746 5746 5746 5745 5744 5743
5793 5797 5803 5809 5818 5816 5817 5821 5820 5819 5823 5837 5836 5830 5825 5819 5814 5811 5805 5799 5795 5790 5786 5783 5780 5777 5774 5769 5766 5763 5761 5757 5753 5751 5749 5746 5744 5744 5742 5742 5741 5740 5740 5742 5743 5743 5743 5743 5742
5789 5795 5804 5810 5811 5812 5815 5814 5814 5814 5826 5830 5827 5822 5816 5812 5808 5804 5801 5795 5789 5783 5779 5775 5773 5770 5766 5763 5761 5759 5757 5753 5749 5747 5744 5740 5738 5738 5738 5737 5737 5737 5737 5738 5739 5740 5741 5741 5741
5789 5793 5796 5802 5808 5812 5808 5803 5801 5802 5815 5815 5810 5805 5803 5800 5796 5793 5790 5785 5781 5777 5773 5769 5766 5763 5759 5757 5755 5754 5751 5748 5744 5741 5738 5734 5733 5732 5731 5732 5732 5733 5733 5734 5736 5737 5737 5737 5737
5788 5783 5788 5796 5800 5805 5802 5782 5780 5792 5801 5799 5795 5792 5789 5786 5785 5781 5779 5777 5774 5770 5766 5762 5757 5754 5751 5750 5749 5746 5742 5740 5738 5734 5731 5727 5726 5725 5725 5727 5727 5728 5729 5730 5731 5732 5732 5732 5733
5778 5769 5765 5781 5788 5793 5784 5756 5769 5783 5788 5783 5781 5779 5776 5774 5773 5772 5770 5768 5765 5761 5756 5753 5751 5747 5743 5741 5738 5735 5734 5733 5730 5726 5724 5722 5721 5720 5719 5720 5721 5722 5723 5725 5726 5726 5725 5726 5727
5753 5747 5752 5763 5776 5778 5766 5748 5757 5771 5775 5770 5769 5768 5767 5764 5763 5762 5761 5758 5754 5751 5747 5743 5740 5737 5735 5733 5732 5729 5727 5725 5723 5720 5717 5717 5716 5714 5713 5715 5716 5717 5718 5720 5721 5720 5720 5720 5721
5743 5746 5747 5749 5758 5761 5751 5742 5749 5757 5762 5760 5760 5759 5757 5755 5752 5752 5750 5748 5744 5741 5738 5735 5731 5729 5728 5726 5724 5722 5720 5719 5718 5715 5713 5713 5710 5709 5709 5710 5712 5713 5713 5714 5715 5715 5715 5716 5716
5754 5748 5744 5750 5758 5748 5738 5734 5738 5746 5749 5749 5748 5748 5746 5744 5744 5743 5740 5738 5737 5733 5730 5728 5723 5721 5722 5720 5716 5714 5713 5713 5713 5712 5711 5708 5705 5705 5705 5707 5707 5708 5708 5709 5710 5710 5710 5710 5711
5750 5744 5743 5747 5752 5742 5730 5728 5733 5737 5737 5738 5737 5736 5735 5734 5734 5732 5730 5728 5726 5723 5721 5719 5716 5713 5713 5712 5710 5709 5708 5707 5707 5707 5705 5704 5702 5701 5702 5703 5703 5703 5704 5704 5705 5705 5704 5705 5706
5753 5748 5749 5745 5742 5737 5728 5718 5721 5727 5730 5730 5729 5728 5726 5725 5721 5719 5718 5716 5714 5713 5711 5711 5709 5707 5706 5705 5704 5703 5701 5700 5700 5700 5699 5699 5699 5698 5698 5699 5698 5698 5699 5699 5700 5700 5699 5698 5700
5748 5762 5759 5750 5731 5715 5723 5700 5710 5714 5715 5717 5717 5717 5716 5715 5712 5708 5706 5705 5704 5703 5703 5703 5700 5699 5698 5697 5695 5693 5691 5689 5690 5691 5692 5693 5694 5694 5694 5693 5693 5693 5694 5694 5694 5695 5695 5694 5694
5759 5760 5752 5743 5729 5712 5709 5698 5699 5706 5704 5706 5708 5708 5707 5705 5703 5700 5698 5697 5696 5695 5693 5693 5691 5689 5689 5688 5686 5684 5682 5682 5682 5683 5684 5685 5686 5686 5687 5687 5687 5688 5688 5689 5689 5689 5689 5690 5690
5764 5750 5738 5724 5713 5699 5702 5697 5693 5697 5701 5702 5703 5702 5700 5698 5696 5693 5691 5688 5686 5685 5684 5682 5680 5679 5678 5677 5675 5674 5673 5672 5672 5672 5673 5673 5674 5676 5677 5678 5679 5681 5682 5683 5683 5684 5684 5685 5686
5751 5728 5703 5699 5688 5690 5700 5694 5693 5704 5705 5702 5698 5696 5694 5691 5687 5683 5681 5679 5677 5676 5675 5673 5670 5668 5667 5665 5663 5662 5661 5661 5660 5660 5660 5660 5661 5663 5664 5666 5668 5670 5672 5674 5675 5676 5677 5679 5680
5742 5728 5699 5687 5681 5685 5693 5688 5695 5705 5704 5701 5696 5691 5688 5683 5679 5676 5674 5671 5669 5667 5665 5661 5658 5656 5655 5653 5651 5649 5647 5646 5646 5646 5645 5646 5646 5648 5650 5652 5655 5658 5660 5663 5665 5667 5669 5671 5673
5735 5718 5716 5693 5687 5678 5682 5689 5697 5700 5696 5692 5687 5682 5678 5675 5672 5668 5666 5663 5659 5655 5652 5648 5644 5642 5640 5638 5636 5634 5632 5631 5630 5629 5628 5629 5630 5632 5634 5636 5639 5642 5645 5649 5652 5655 5658 5661 5664
5735 5718 5700 5688 5676 5669 5676 5677 5673 5683 5681 5679 5676 5671 5668 5666 5663 5660 5657 5653 5649 5645 5640 5635 5630 5626 5623 5620 5618 5618 5616 5614 5613 5611 5609 5610 5611 5613 5615 5618 5621 5624 5628 5632 5636 5641 5645 5649 5652
5721 5713 5693 5679 5676 5665 5658 5663 5675 5672 5671 5668 5665 5663 5660 5656 5653 5649 5645 5641 5635 5630 5625 5620 5616 5611 5607 5605 5602 5600 5599 5597 5595 5593 5592 5592 5593 5594 5595 5599 5602 5606 5611 5616 5619 5625 5630 5634 5639
5720 5708 5695 5681 5671 5662 5652 5654 5671 5667 5664 5661 5658 5655 5651 5647 5642 5638 5632 5627 5621 5616 5611 5606 5602 5598 5595 5592 5589 5587 5585 5583 5580 5580 5580 5579 5578 5578 5579 5581 5583 5587 5592 5597 5602 5607 5613 5618 5623